{"data":{"norad_id":56147,"epoch":"2026-07-04T14:12:12.592224Z","epoch_age_seconds":6840025,"freshness":"OLD","line1":"1 56147U 23046BH  26185.59181241  .08146435  93649-5  41532-3 0  9996","line2":"2 56147  42.9911 147.6827 0003736 269.9637  90.0829 16.42572594180740","mean_motion":16.42572594,"eccentricity":0.0003736,"inclination_deg":42.9911,"raan_deg":147.6827,"arg_perigee_deg":269.9637,"mean_anomaly_deg":90.0829,"bstar":0.00041532,"rev_number":18074,"period_min":87.667358219664,"perigee_km":156.52572211435,"apogee_km":161.4102469588,"semimajor_km":6537.1049845366,"source":"CELESTRAK","updated_at":"2026-07-05T09:00:34.102878Z"}}